Weather in Dolgoshchelye

Russia / Arkhangel'skaya Oblast'     66°02′30″N   43°27′04″E
temp.,
°C
wind,
m/s
gust,
m/s
humid.,
%
clouds,
%
prec.,
mm/h
press.,
hPa
HPBL,
m
26 october, tue
tue2600:00−6se229823 0.0 101332
03:00−7se23967 0.0 101343
06:00−7se2497100 0.0 101251
09:00−6se3594100 0.0 1011122
12:00−3se3589100 0.0 1011219
15:00−3ese4791100 0.0 1009217
18:00−3se51092100 0.0 1009324
21:00−3ese51193100 0.1 1007415
27 october, wed
wed2700:00−3ese61294100 0.3 1005457
03:00−3ese71296100 1.2 1002529
06:00−3ese71296100 2.0 1000518
09:00−3e61196100 4.7 997454
12:00−2e5897100 2.9 996392
15:00−2ne5897100 4.6 995391
18:00−3ne7119488 0.9 996497
21:00−4nne8148793 0.9 998592
28 october, thu
thu2800:00−3nne10168295 0.1 1001856
03:00−4nne5108093 0.1 1004168
06:00−3n713659 0.3 1007238
09:00−3n612645 0.3 1010239
12:00−2nnw47745 0.0 1013149
15:00−5w348691 0.0 101637
18:00−4w338998 0.0 101936
21:00−6w339598 0.0 102029
29 october, fri
fri2900:00−6wsw2296100 0.0 102114
03:00−5sw2392100 0.0 102144
06:00−3s41087100 0.0 1018248
09:00−3s71581100 0.1 1014567
12:00−3s91792100 0.7 1010731
15:00−3s71595100 3.9 1006670
18:00−2ssw51192100 0.8 1004436
21:00+1sw41197100 0.8 1003341
30 october, sat
sat3000:00+2wsw48100100 0.0 1004213
03:00+2w37100100 0.0 1005162
06:00+1w35100100 0.0 1007103
09:00+1w23100100 0.0 100960
12:00+1w22100100 0.0 101018
15:00+1s12100100 0.0 101117
18:00+1sse36100100 0.0 1011137
21:00+1sse37100100 0.3 1010141